SCP
0 0 0 0 0 0 0 0 0 0 0 0 0 0 0 0 0 0 0 0 0 0 0 0 0 0 0 0 0 0 0 0 0 0 0 0 0 0 0 0 0 0 0
0 0 0 0 0 0 0 0 0 0 0 0 0 0 0 0 0 0 0 0 0 0 0 0 0 0 0 0 0 0 0 0 0 0 0 0 0 0 0 0 0 0 0
0 0 0 0 0 0 0 0 0 0 0 0 0 0 0 0 0 0 0 0 0 0 0 0 0 0 0 0 0 0 0 0 0 0 0 0 0 0 0 0 0 0 0
0 0 0 0 0 0 0 0 0 0 0 0 0 0 0 0 0 0 0 0 0 0 0 0 0 0 0 0 0 0 0 0 0 0 0 0 0 0 0 0 0 0 0
0 0 0 0 0 0 0 0 0 0 0 0 0 0 0 0 0 0 0 0 0 0 0 0 0 0 0 0 0 0 0 0 0 0 0 0 0 0 0 0 0 0 0
0 0 0 0 0 0 0 0 0 0 0 0 0 0 0 0 0 0 0 0 0 0 0 0 0 0 0 0 0 0 0 0 0 0 0 0 0 0 0 0 0 0 0
0 0 0 0 0 0 0 0 0 0 0 0 0 0 0 0 0 0 0 0 0 0 0 0 0 0 0 0 0 0 0 0 0 0 0 0 0 0 0 0 0 0 0
0 0 0 0 0 0 0 0 0 0 0 0 0 0 0 0 0 0 0 0 0 0 0 0 0 0 0 0 0 0 0 0 0 0 0 0 0 0 0 0 0 0 0
0 0 0 0 0 0 0 0 0 0 0 0 0 0 0 0 0 0 0 0 0 0 0 0 0 0 0 0 0 0 0 0 0 0 0 0 0 0 0 0 0 0 0
0 0 0 0 0 0 0 0 0 0 0 0 0 0 0 0 0 0 0 0 0 0 0 0 0 0 0 0 0 0 0 0 0 0 0 0 0 0 0 0 0 0 0
0 0 0 0 0 0 0 0 0 0 0 0 0 0 0 0 0 0 0 0 0 0 0 0 0 0 0 0 0 0 0 0 0 0 0 0 0 0 0 0 0 0 0
0 0 0 0 0 0 0 0 0 0 0 0 0 0 0 0 0 0 0 0 0 0 0 0 0 0 0 0 0 0 0 0 0 0 0 0 0 0 0 0 0 0 0
0 0 0 0 0 0 0 0 0 0 0 0 0 0 0 0 0 0 0 0 0 0 0 0 0 0 0 0 0 0 0 0 0 0 0 0 0 0 0 0 0 0 0
0 0 0 0 0 0 0 0 0 0 0 0 0 0 0 0 0 0 0 0 0 0 0 0 0 0 0 0 0 0 0 0 0 0 0 0 0 0 0 0 0 0 0
0 0 0 0 0 0 0 0 0 0 0 0 0 0 0 0 0 0 0 0 0 0 0 0 0 0 0 0 0 0 0 0 0 0 0 0 0 0 0 0 0 0 0
1 1 1 0 0 0 0 0 0 0 0 0 0 0 0 0 0 0 0 0 0 0 0 0 0 0 0 0 0 0 0 0 0 0 0 0 0 0 0 0 0 0 0
1 1 1 1 0 0 0 0 0 0 0 0 0 0 0 0 0 0 0 0 0 0 0 0 0 0 0 0 0 0 0 0 0 0 0 0 0 0 0 0 0 0 0
1 1 1 1 0 0 0 0 0 0 0 0 0 0 0 0 0 0 0 0 0 0 0 0 0 0 0 0 0 0 0 0 0 0 0 0 0 0 0 0 0 0 0
1 1 1 1 0 0 0 0 0 0 0 0 0 0 0 0 0 0 0 0 0 0 0 0 0 0 0 0 0 0 0 0 0 0 0 0 0 0 0 0 0 0 0
1 1 1 0 0 0 0 0 0 0 0 0 0 0 0 0 0 0 0 0 0 0 0 0 0 0 0 0 0 0 0 0 0 0 0 0 0 0 0 0 0 0 0
0 0 0 0 0 0 0 0 0 0 0 0 0 0 0 0 0 0 0 0 0 0 0 0 0 0 0 0 0 0 0 0 0 0 0 0 0 0 0 0 0 0 0
0 0 0 0 0 0 0 0 0 0 0 0 0 0 0 0 0 0 0 0 0 0 0 0 0 0 0 0 0 0 0 0 0 0 0 0 0 0 0 0 0 0 0
0 0 0 0 0 0 0 0 0 0 0 0 0 0 0 0 0 0 0 0 0 0 0 0 0 0 0 0 0 0 0 0 0 0 0 0 0 0 0 0 0 0 0
0 0 0 0 0 0 0 0 0 0 0 0 0 0 0 0 0 0 0 0 0 0 0 0 0 0 0 0 0 0 0 0 0 0 0 0 0 0 0 0 0 0 0
0 0 0 0 0 0 0 0 0 0 0 0 0 0 0 0 0 0 0 0 0 0 0 0 0 0 0 0 0 0 0 0 0 0 0 0 0 0 0 0 0 0 0
0 0 0 0 0 0 0 0 0 0 0 0 0 0 0 0 0 0 0 0 0 0 0 0 0 0 0 0 0 0 0 0 0 0 0 0 0 0 0 0 0 0 0
Wind_Speed
1 2 2 1 1 2 2 2 1 2 2 3 2 2 2 2 2 2 4 7 6 6 6 7 8 8 8 8 8 8 8 8 8 8 8 7 7 7 7 7 7 7 6
1 1 1 1 1 1 1 1 2 2 2 2 2 2 2 2 3 3 3 6 8 7 7 7 7 8 9 9 9 9 9 9 9 9 8 8 7 7 7 7 7 7 6
1 0 0 1 0 1 1 1 2 2 2 2 2 2 2 2 2 2 3 2 4 8 7 6 7 8 8 9 9 9 9 9 9 9 9 8 7 7 7 7 7 7 6
1 0 0 0 0 1 1 1 2 2 1 1 2 2 2 2 2 2 2 2 2 3 6 8 7 7 8 8 8 9 9 9 9 10 9 9 8 8 7 7 7 7 7
1 1 0 0 1 1 1 2 2 2 2 2 2 2 2 2 2 2 2 2 2 2 3 7 8 6 6 6 6 8 8 9 9 10 10 10 9 9 8 8 8 8 7
1 1 1 0 1 1 1 1 2 2 2 2 2 1 2 2 2 2 2 3 2 3 3 3 5 6 7 6 6 7 7 8 8 8 9 10 10 9 9 9 8 8 8
1 1 1 0 1 0 1 2 2 3 3 3 2 2 2 2 2 1 2 2 2 3 2 2 2 2 5 8 7 6 7 7 7 8 8 8 9 9 9 9 8 8 8
1 1 1 1 0 1 1 2 2 2 2 2 2 2 3 3 2 1 2 2 2 2 2 3 2 2 2 3 5 7 6 6 6 7 7 8 8 8 9 9 9 9 9
1 2 1 2 1 2 1 2 3 4 3 2 2 2 2 1 2 3 2 1 1 1 2 2 3 3 3 2 3 6 5 4 5 5 5 6 7 7 8 9 9 10 10
1 1 1 1 2 1 1 2 2 2 3 2 2 1 2 1 1 2 2 2 2 2 1 1 1 2 2 2 2 4 4 3 3 3 4 4 5 6 8 10 10 11 11
1 1 1 1 1 1 1 2 1 2 2 2 1 1 1 2 3 2 2 2 2 1 1 1 0 1 1 1 2 5 5 3 1 1 2 3 4 5 6 8 11 11 11
1 1 1 1 1 1 1 2 2 2 2 2 2 1 1 1 2 2 2 2 1 1 1 1 1 1 1 2 3 6 5 4 2 2 1 1 2 3 4 4 7 9 10
1 1 1 1 1 1 1 1 2 2 1 1 2 1 1 1 1 1 1 1 1 1 2 1 1 1 1 2 3 6 5 4 3 2 2 2 1 2 2 2 3 4 7
1 1 1 1 1 1 1 1 1 1 1 1 1 1 1 1 1 1 1 1 1 1 2 1 1 1 1 1 4 3 3 5 4 3 3 2 2 2 2 2 2 2 2
1 1 1 1 1 1 1 1 1 1 1 1 1 1 1 0 1 1 1 1 2 1 1 1 1 1 1 2 3 1 2 6 5 4 4 4 4 4 4 4 3 3 3
1 1 1 1 1 1 1 1 1 1 1 1 1 0 1 1 0 0 1 1 1 1 0 1 1 2 2 2 4 2 3 8 7 6 6 6 5 5 5 5 5 5 5
1 1 1 1 1 1 1 0 1 1 1 1 1 1 0 1 1 0 0 0 0 0 1 1 2 3 2 2 2 1 2 3 5 8 7 7 7 7 7 6 6 6 5
2 2 1 1 1 0 0 0 0 1 0 1 1 1 0 1 0 0 0 0 1 1 1 1 2 2 2 2 2 1 2 2 4 9 8 8 7 7 7 7 7 7 7
2 2 1 1 1 1 1 0 1 1 1 2 2 1 1 1 1 1 0 1 1 1 1 2 2 2 1 1 1 2 3 2 2 6 7 8 7 7 8 8 8 7 7
2 2 2 1 1 2 2 1 2 2 2 3 3 3 3 2 1 1 1 1 0 1 2 2 2 2 2 1 1 1 2 2 1 2 4 4 6 7 7 8 8 8 7
2 2 2 2 2 2 2 2 2 3 3 3 3 3 4 5 7 5 3 2 1 0 1 1 2 1 1 0 0 1 1 1 2 1 1 2 3 3 4 6 7 7 7
2 2 3 3 3 3 5 5 2 3 2 3 3 3 4 4 5 6 7 7 5 2 1 0 1 1 1 1 1 1 1 1 1 1 0 1 2 2 2 4 6 6 5
3 3 3 3 4 5 6 4 3 2 2 2 2 2 2 3 2 3 4 4 5 5 3 2 1 1 1 1 2 2 0 0 0 1 1 1 1 2 2 5 7 5 4
3 3 3 3 4 5 4 3 2 2 2 2 2 2 2 3 3 2 2 3 3 4 3 2 2 1 2 2 2 1 1 2 2 2 0 0 1 1 2 3 7 5 4
3 3 4 3 3 4 4 2 1 2 3 3 3 3 3 3 5 3 2 3 3 3 4 4 4 3 3 3 3 1 1 2 1 2 1 1 1 1 1 2 5 7 5
3 3 4 3 3 3 3 1 2 2 3 3 3 4 5 4 4 4 1 2 2 2 2 3 3 2 2 2 1 2 2 1 0 1 1 1 1 1 1 1 1 2 4
Wind_Direction
69 84 94 100 116 119 147 147 126 129 145 159 174 158 140 143 155 162 132 146 167 180 185 184 179 180 185 189 189 188 188 185 181 179 179 181 180 180 178 175 176 178 178
69 68 109 112 123 145 109 156 144 152 171 160 167 161 165 162 164 181 172 159 171 181 188 191 184 186 193 195 196 197 197 193 187 186 186 188 189 187 186 184 182 182 186
49 35 117 192 133 142 155 175 160 169 182 175 168 175 171 184 183 185 196 190 172 177 186 189 187 187 193 198 202 201 199 196 196 193 188 189 193 192 192 194 192 190 193
2 311 219 174 203 196 176 172 188 183 174 186 179 187 166 167 185 190 191 190 198 179 175 180 181 181 190 199 202 200 198 195 195 194 192 195 197 196 196 200 200 196 197
335 291 327 36 239 201 197 228 156 188 179 185 184 177 176 169 174 185 177 179 193 201 187 164 172 178 187 192 195 196 197 196 198 197 198 201 201 201 200 204 206 205 206
349 321 214 256 271 204 185 212 179 186 196 199 216 140 156 171 177 172 186 173 187 201 200 183 174 179 183 187 193 197 197 198 198 198 203 206 208 207 205 206 207 206 207
21 299 306 175 267 231 232 217 208 187 191 185 183 157 154 166 165 183 194 192 187 195 192 198 207 198 173 181 189 196 203 205 202 201 203 207 212 212 208 208 208 208 210
302 243 280 267 258 228 219 219 215 221 203 198 214 193 180 161 160 176 185 195 206 206 197 197 198 200 207 177 160 179 191 202 206 207 209 209 210 211 213 211 211 212 214
308 318 296 289 275 245 212 218 214 222 224 207 232 267 245 173 155 156 180 181 178 222 226 202 197 194 209 196 169 164 174 187 201 210 213 217 216 215 220 220 220 219 220
305 294 285 281 267 258 238 238 207 234 239 230 205 247 305 345 232 161 168 162 168 196 248 246 197 177 192 185 122 104 130 158 188 210 225 232 233 229 227 227 227 226 226
286 293 284 272 265 253 250 267 246 250 246 257 248 225 207 199 237 225 192 177 164 165 179 193 173 157 145 148 128 97 105 118 146 212 239 248 250 253 246 238 234 234 234
251 272 266 268 268 277 252 243 238 231 254 271 277 272 241 230 219 223 210 195 150 112 118 110 127 136 138 133 103 93 98 97 91 77 31 286 279 276 268 256 248 243 241
237 251 281 274 277 265 238 230 222 239 240 245 263 273 298 296 290 263 232 192 137 153 137 136 119 132 132 106 99 100 99 97 85 69 54 41 8 331 323 309 279 267 255
280 291 261 262 276 271 243 215 231 220 220 225 245 262 272 288 302 259 244 205 184 186 139 106 116 108 75 93 86 123 105 94 78 62 54 48 42 32 19 15 9 347 324
242 225 238 226 237 255 268 240 251 250 223 233 233 213 246 265 251 266 258 245 241 217 151 133 124 86 68 85 86 106 85 86 80 71 62 52 50 49 46 38 32 28 20
250 249 233 229 234 260 260 261 253 249 230 216 237 269 292 298 302 249 246 251 272 259 204 106 97 84 58 73 90 73 82 100 84 78 70 64 60 58 58 51 47 45 47
196 199 204 224 227 226 240 247 285 264 234 201 205 170 154 336 319 277 215 185 238 215 164 125 114 97 87 65 77 74 94 101 94 86 79 73 68 65 65 61 57 54 50
178 168 177 192 204 169 153 172 262 288 264 140 133 130 144 143 158 312 164 99 99 114 179 142 111 105 93 93 96 107 92 95 96 97 94 84 77 70 68 66 61 56 52
150 148 157 166 159 121 119 111 109 83 71 69 67 73 68 63 67 80 101 98 114 133 139 151 136 117 87 83 118 97 90 73 93 116 118 104 92 85 79 74 67 61 56
137 134 138 132 112 103 92 97 112 108 98 80 71 67 59 54 45 69 110 104 124 162 154 164 129 125 108 92 172 136 117 98 68 81 87 101 113 113 98 89 77 68 64
132 127 127 117 106 106 70 79 114 112 110 105 94 83 69 56 42 31 27 41 54 222 156 149 130 130 116 154 245 211 127 129 105 62 95 110 123 111 109 105 85 72 72
101 96 95 100 91 67 51 40 37 103 103 101 94 89 94 82 78 71 58 49 33 13 16 332 120 132 155 199 268 245 189 193 130 82 260 104 95 89 89 85 86 89 85
108 106 99 98 90 68 55 48 25 95 101 88 86 81 76 80 95 102 105 106 69 44 16 333 28 342 314 309 261 239 216 273 69 124 217 129 103 92 94 93 108 111 108
106 103 102 102 101 83 64 49 354 125 100 89 77 80 81 74 45 39 109 93 78 55 26 25 47 18 24 349 290 250 204 182 165 120 238 220 122 102 96 111 129 134 138
121 118 112 108 103 94 73 53 299 134 112 95 79 67 61 77 33 1 96 99 88 88 84 69 58 57 50 22 340 272 201 200 153 130 148 264 181 154 137 135 138 157 165
131 128 114 113 107 99 89 54 285 156 129 125 108 94 65 52 41 9 81 106 103 84 87 104 101 99 87 78 12 336 316 287 198 120 96 263 215 230 215 142 127 164 172